Hourly Data Report for October 12, 2015

All times are specified in Local Standard Time (LST). Add 1 hour to adjust for Daylight Saving Time where and when it is observed.

CORAL HARBOUR A
NUNAVUT

64°11'36.000" N
83°21'34.000" W
62.20 m
2301002
71915
YZS

Download Data

Hourly Data (October 2015)
Hourly Data Report for October 12, 2015
Temp Definition
°C
Dew Point Temp Definition
°C
Rel Hum Definition
%
Wind Dir Definition
10's deg

Wind Spd Definition
km/h
Visibility Definition
km
Stn Press Definition
kPa
Hmdx Definition


Wind Chill Definition


Weather Definition


TIME
00:00 Legend Double Dagger -11.9 -13.8 86 33 16 24.1 99.65   -19 LegendNANA
01:00 Legend Double Dagger -11.2 -13.3 85 33 17 24.1 99.66   -19 Mainly Clear
02:00 Legend Double Dagger -10.2 -12.3 85 34 14 24.1 99.67   -17 LegendNANA
03:00 Legend Double Dagger -9.8 -11.7 86 36 15 24.1 99.63   -16 LegendNANA
04:00 Legend Double Dagger -9.4 -11.2 87 34 13 24.1 99.59   -15 Clear
05:00 Legend Double Dagger -10.4 -12.2 87 35 12 24.1 99.58   -16 LegendNANA
06:00 Legend Double Dagger -10.6 -12.4 87 34 11 24.1 99.59   -16 LegendNANA
07:00 Legend Double Dagger -10.0 -11.6 88 6 4 24.1 99.61   -12 Mostly Cloudy
08:00 Legend Double Dagger -9.8 -11.6 87 34 4 24.1 99.58   -12 LegendNANA
09:00 Legend Double Dagger -7.8 -9.3 89 5 5 24.1 99.56   -10 LegendNANA
10:00 Legend Double Dagger -6.6 -8.4 87 7 7 24.1 99.55   -10 Cloudy
11:00 Legend Double Dagger -5.7 -7.8 85 10 4 24.1 99.54   -8 LegendNANA
12:00 Legend Double Dagger -5.6 -7.7 85 18 3 24.1 99.53   -7 LegendNANA
13:00 Legend Double Dagger -5.3 -8.1 81 36 2 24.1 99.51   -6 Cloudy
14:00 Legend Double Dagger -4.8 -7.7 80 36 1 24.1 99.49   -5 LegendNANA
15:00 Legend Double Dagger -4.8 -7.4 82 26 3 24.1 99.45   -6 LegendNANA
16:00 Legend Double Dagger -4.9 -8.0 79 32 24 24.1 99.44   -12 Snow
17:00 Legend Double Dagger -5.6 -8.2 82 33 10 24.1 99.47   -10 LegendNANA
18:00 Legend Double Dagger -5.4 -8.2 81 30 10 24.1 99.46   -10 LegendNANA
19:00 Legend Double Dagger -7.0 -9.0 86 31 10 24.1 99.43   -12 Mostly Cloudy
20:00 Legend Double Dagger -6.4 -8.5 85 28 13 24.1 99.39   -12 LegendNANA
21:00 Legend Double Dagger -6.6 -9.0 83 27 9 24.1 99.35   -11 LegendNANA
22:00 Legend Double Dagger -7.1 -9.2 85 31 5 24.1 99.30   -10 Mostly Cloudy
23:00 Legend Double Dagger -6.5 -9.2 81 27 9 24.1 99.28   -11 LegendNANA

Notes on Data Quality.

Legend

  • E = Estimated
  • M = Missing
  • NA = Not Available
  • ‡ = Partner data that is not subject to review by the National Climate Archives
Date modified: